Hourly Data Report for November 09, 2004

SHERBROOKE A
QUEBEC

45°26'00.000" N
71°41'00.000" W
241.40 m
7028124
71610
YSC

Download Data

Hourly Data (November 2004)
Hourly Data Report for November 9, 2004
TIME
LST
Temp Definition
°C
Dew Point Definition
°C
Rel Hum Definition
%
Precip. Amount Definition
mm

Wind Dir Definition
10's deg

Wind Spd Definition
km/h
Visibility Definition
km
Stn Press Definition
kPa
Hmdx Definition


Wind Chill Definition


Weather Definition


00:00 -4.7 -9.4 70   27 9 15.0 99.36   -9  
01:00 -4.0 -9.1 68   29 11 15.0 99.39   -8  
02:00 -3.9 -9.1 67   29 11 15.0 99.43   -8  
03:00 -3.9 -9.0 68   30 11 15.0 99.48   -8  
04:00 -4.3 -9.2 69   31 9 15.0 99.53   -8  
05:00 -5.5 -9.5 73   29 9 15.0 99.61   -10  
06:00 -4.7 -9.6 69   31 6 15.0 99.67   -7  
07:00 -4.4 -9.5 68   30 7 15.0 99.74   -8  
08:00 -4.1 -8.7 70   27 9 19.3 99.81   -8 Snow Showers
09:00 -3.5 -8.3 69   27 9 19.3 99.86   -7 Cloudy
10:00 -4.0 -7.2 78   31 11 0.8 99.94   -8 Moderate Snow
11:00 -3.9 -7.6 75   29 13 16.1 99.93   -9 Snow Showers
12:00 -3.4 -8.6 67   32 13 19.3 99.92   -8 Cloudy
13:00 -3.4 -8.4 68   34 15 19.3 99.95   -9 Cloudy
14:00 -3.0 -9.6 60   30 17 24.1 99.98   -9 Mostly Cloudy
15:00 -3.0 -9.9 59   33 13 24.1 100.02   -8 Mostly Cloudy
16:00 -3.4 -10.0 60   31 13 24.1 100.09   -8 Mostly Cloudy
17:00 -4.8 -10.8 63   28 9 24.1 100.12   -9 Mostly Cloudy
18:00 -5.9 -10.2 72   26 9 15.0 100.17   -10  
19:00 -6.7 -10.3 76   26 6 15.0 100.18   -10  
20:00 -7.2 -10.0 80   24 7 15.0 100.25   -11  
21:00 -7.6 -10.1 82   23 7 15.0 100.28   -11  
22:00 -8.2 -10.3 85   22 6 15.0 100.29   -11  
23:00 -9.6 -11.5 86   32 4 15.0 100.31   -12  

Notes on Data Quality.

Legend

  • E = Estimated
  • M = Missing
  • NA = Not Available*
  • [empty] = Indicates an unobserved value
Date modified: